GW5939 Weather Reports


time (UTC)temp
C
wind
direction
speed
KPH
gust
KPH
rain 1hr
cm
rain 24hr
cm
rain mn
cm
humidity
%
barometer
mb
20260510022607 31 95 3.2 9.7 0.00 0.18 0.18 72 1010.9
20260510022102 31 116 6.4 11.3 0.00 0.18 0.18 71 1010.9
20260510021553 31 125 4.8 9.7 0.00 0.18 0.18 72 1010.9
20260510021050 30 139 3.2 6.4 0.00 0.18 0.18 74 1011.2
20260510020544 30 139 3.2 4.8 0.00 0.18 0.18 74 1011.2
20260510020040 30 139 3.2 6.4 0.00 0.18 0.18 75 1011.2
20260510015536 30 139 4.8 8.0 0.00 0.18 0.18 76 1011.6
20260510015032 30 139 1.6 3.2 0.00 0.18 0.18 75 1011.6
20260510014528 30 135 4.8 8.0 0.00 0.18 0.18 75 1011.6
20260510014025 30 130 1.6 3.2 0.00 0.18 0.18 75 1011.6
20260510013520 30 146 8.0 14.5 0.00 0.18 0.18 76 1011.6
20260510013016 30 135 4.8 11.3 0.00 0.18 0.18 76 1011.9
20260510012511 30 156 4.8 8.0 0.00 0.18 0.18 77 1011.9
20260510012007 29 156 4.8 9.7 0.00 0.18 0.18 77 1011.9
20260510011507 29 155 1.6 4.8 0.00 0.18 0.18 79 1011.9
20260510011002 29 155 3.2 6.4 0.00 0.18 0.18 78 1011.9
20260510010500 30 152 4.8 14.5 1.19 0.15 0.15 76 1012.3
20260510005957 30 150 9.7 16.1 0.00 0.13 0.13 74 1012.3
20260510005453 30 151 6.4 12.9 0.00 0.13 0.13 73 1012.3
20260510004950 30 153 8.0 14.5 0.00 0.13 0.13 73 1012.3
20260510004447 31 155 3.2 8.0 0.00 0.13 0.13 74 1012.3
20260510003946 31 150 1.6 6.4 0.00 0.13 0.13 75 1012.3
20260510003442 30 140 1.6 3.2 0.00 0.13 0.13 75 1012.6
20260510002942 31 123 4.8 17.7 0.00 0.13 0.13 73 1012.6
20260510002438 31 150 3.2 8.0 0.00 0.13 0.13 72 1012.6
20260510001935 31 116 6.4 12.9 0.00 0.13 0.13 73 1012.6
20260510001432 30 116 4.8 11.3 0.00 0.13 0.13 76 1012.6
20260510000930 30 146 3.2 6.4 0.00 0.13 0.13 77 1013.0
20260510000426 30 148 4.8 9.7 0.00 0.13 0.13 77 1013.0
20260509235922 30 143 4.8 8.0 0.00 0.13 0.13 76 1013.4
20260509235415 30 176 3.2 6.4 0.00 0.13 0.13 76 1013.4
20260509234910 31 129 6.4 12.9 0.00 0.13 0.13 73 1013.0
20260509234408 31 123 4.8 8.0 0.00 0.13 0.13 73 1013.0
20260509233905 31 78 1.6 9.7 0.00 0.13 0.13 74 1013.0
20260509233402 30 132 4.8 9.7 0.00 0.13 0.13 75 1013.4
20260509232857 30 103 3.2 8.0 0.00 0.13 0.13 75 1013.0
20260509232356 30 81 1.6 9.7 0.00 0.13 0.13 76 1013.0
20260509231852 30 154 3.2 8.0 0.00 0.13 0.13 76 1013.0
20260509231349 30 154 3.2 6.4 0.00 0.13 0.13 76 1013.4
20260509230847 30 128 1.6 4.8 0.00 0.13 0.13 76 1013.4
20260509230343 30 85 6.4 14.5 0.00 0.13 0.13 75 1013.0
20260509225838 30 122 3.2 9.7 0.00 0.13 0.13 76 1013.0
20260509225336 30 155 3.2 9.7 0.00 0.13 0.13 76 1013.4
20260509224832 30 126 6.4 17.7 0.00 0.13 0.13 76 1013.0
20260509224328 30 82 3.2 6.4 0.00 0.13 0.13 76 1013.0
20260509223825 30 110 4.8 9.7 0.00 0.13 0.13 76 1013.0
20260509223322 30 147 0.0 6.4 0.00 0.13 0.13 76 1013.0
20260509222819 30 106 4.8 9.7 0.00 0.13 0.13 76 1013.0
20260509222314 29 113 3.2 9.7 0.00 0.13 0.13 77 1013.0
20260509221809 29 122 3.2 6.4 0.00 0.13 0.13 78 1013.0
20260509221307 29 140 1.6 6.4 0.00 0.13 0.13 78 1012.6
20260509220802 29 140 1.6 6.4 0.00 0.13 0.13 78 1012.6
20260509220259 29 49 1.6 6.4 0.00 0.13 0.13 78 1013.0
20260509215754 29 46 4.8 6.4 0.00 0.13 0.13 78 1012.6
20260509215251 29 82 3.2 6.4 0.00 0.13 0.13 78 1012.6
20260509214748 29 21 1.6 4.8 0.00 0.13 0.13 78 1012.6
20260509214245 29 142 0.0 4.8 0.00 0.13 0.13 78 1012.6
20260509213742 29 73 1.6 6.4 0.00 0.13 0.13 78 1012.6
20260509213238 30 90 4.8 6.4 0.00 0.13 0.13 77 1012.6
20260509212735 30 37 3.2 4.8 0.00 0.13 0.13 77 1012.3
20260509212233 30 27 0.0 4.8 0.00 0.13 0.13 77 1012.3
20260509211728 29 111 3.2 6.4 0.00 0.13 0.13 79 1012.3
20260509211225 29 66 0.0 1.6 0.00 0.13 0.13 79 1012.3
20260509210721 28 126 3.2 6.4 0.00 0.13 0.13 80 1012.3
20260509210219 28 126 3.2 6.4 0.00 0.13 0.13 80 1012.3
20260509205718 28 153 3.2 4.8 0.00 0.13 0.13 81 1012.3
20260509205213 28 153 1.6 4.8 0.00 0.13 0.13 81 1012.3
20260509204709 28 131 6.4 9.7 0.00 0.13 0.13 81 1011.9
20260509204205 28 147 6.4 11.3 0.00 0.13 0.13 81 1011.9
20260509203701 28 133 6.4 9.7 0.00 0.13 0.13 81 1011.9
20260509203159 28 131 1.6 4.8 0.00 0.13 0.13 81 1011.9
20260509202655 27 131 6.4 8.0 0.00 0.13 0.13 81 1011.9
20260509202149 27 131 6.4 8.0 0.00 0.13 0.13 81 1011.9
20260509195759 27 135 4.8 11.3 0.00 0.13 0.13 83 1011.2
20260509195254 27 135 4.8 11.3 0.00 0.13 0.13 83 1011.2
20260509194754 27 125 6.4 8.0 0.00 0.13 0.13 84 1011.2
20260509194250 27 95 4.8 9.7 0.00 0.13 0.13 84 1011.2
20260509193747 27 117 3.2 4.8 0.00 0.13 0.13 84 1011.2
20260509192036 27 94 4.8 16.1 0.00 0.13 0.13 84 1011.2
20260509191531 27 94 4.8 16.1 0.00 0.13 0.13 84 1011.2
20260509191027 27 102 6.4 20.9 0.00 0.13 0.13 84 1011.2
20260509190524 27 111 4.8 11.3 0.00 0.13 0.13 85 1011.2
20260509190022 27 47 3.2 11.3 0.00 0.13 0.13 85 1010.9
20260509185519 27 47 3.2 11.3 0.00 0.13 0.13 85 1010.9
20260509185015 26 93 3.2 9.7 0.00 0.13 0.13 86 1010.9
20260509184514 26 59 1.6 11.3 0.00 0.13 0.13 86 1010.9
20260509184010 26 11 1.6 9.7 0.00 0.13 0.13 87 1010.9
20260509183505 26 0 0.0 0.0 0.00 0.13 0.13 87 1010.9
20260509183001 26 0 0.0 6.4 0.00 0.13 0.13 87 1010.9
20260509182457 26 32 0.0 3.2 0.00 0.13 0.13 88 1010.9
20260509181955 26 32 1.6 3.2 0.00 0.13 0.13 88 1010.9
20260509181453 26 112 3.2 6.4 1.19 0.10 0.10 88 1010.9
20260509180950 26 112 0.0 3.2 0.00 0.10 0.10 88 1010.9
20260509180445 26 112 1.6 3.2 0.00 0.10 0.10 87 1011.2
20260509175942 26 112 1.6 3.2 0.00 0.10 0.10 87 1011.2
20260509175439 26 55 4.8 9.7 0.00 0.05 0.05 85 1010.9
20260509174935 27 76 4.8 14.5 1.19 0.03 0.03 85 1010.9
20260509174431 27 116 0.0 1.6 0.00 0.03 0.03 84 1010.9
20260509173927 27 67 0.0 3.2 0.00 0.03 0.03 84 1010.9
20260509173426 27 67 0.0 1.6 0.00 0.03 0.03 84 1010.9
20260509172923 27 128 3.2 9.7 0.00 0.03 0.03 84 1010.9
20260509172421 27 103 1.6 3.2 0.00 0.03 0.03 84 1010.9
20260509171916 27 150 3.2 9.7 0.00 0.03 0.03 84 1010.6
20260509171412 27 42 3.2 9.7 0.00 0.03 0.03 84 1010.6
20260509170909 27 164 1.6 3.2 0.00 0.03 0.03 84 1010.6
20260509170404 27 124 3.2 4.8 0.00 0.03 0.03 84 1010.6
20260509165900 27 124 3.2 4.8 0.00 0.03 0.03 84 1010.6
20260509165354 27 96 1.6 6.4 0.00 0.03 0.03 83 1010.6
20260509164850 27 103 3.2 6.4 0.00 0.03 0.03 83 1010.6
20260509164346 27 124 6.4 11.3 0.00 0.03 0.03 83 1010.6
20260509163843 27 123 3.2 8.0 0.00 0.03 0.03 83 1010.6
20260509163340 27 125 3.2 14.5 0.00 0.03 0.03 84 1010.6
20260509162839 27 125 3.2 14.5 0.00 0.03 0.03 84 1010.6
20260509162338 27 127 3.2 9.7 0.00 0.03 0.03 84 1010.6
20260509161834 27 125 4.8 12.9 0.00 0.03 0.03 84 1010.6
20260509161330 27 338 1.6 12.9 0.00 0.03 0.03 84 1010.6
20260509160826 27 88 3.2 11.3 0.00 0.03 0.03 85 1010.6
20260509160322 27 121 4.8 9.7 0.00 0.03 0.03 85 1010.6
20260509155817 26 104 1.6 11.3 0.00 0.03 0.03 85 1010.9
20260509155314 26 124 3.2 8.0 0.00 0.03 0.03 85 1010.9
20260509154810 26 129 3.2 9.7 0.00 0.03 0.03 85 1010.9
20260509154307 27 90 3.2 6.4 0.00 0.03 0.03 84 1010.9
20260509153804 27 116 4.8 8.0 0.00 0.00 0.00 84 1010.9
20260509153300 27 73 4.8 12.9 0.00 0.00 0.00 84 1010.9
20260509152757 27 82 6.4 14.5 0.00 0.00 0.00 83 1011.2
20260509152253 27 36 9.7 16.1 0.00 0.00 0.00 82 1011.2
20260509151751 27 50 6.4 14.5 0.00 0.00 0.00 82 1011.2
20260509151247 27 52 6.4 16.1 0.00 0.00 0.00 81 1011.2
20260509150745 27 80 3.2 8.0 0.00 0.00 0.00 80 1011.2
20260509150244 27 118 3.2 6.4 0.00 0.00 0.00 80 1011.2
20260509145740 27 108 6.4 14.5 0.00 0.00 0.00 80 1011.2
20260509145239 27 68 4.8 11.3 0.00 0.00 0.00 80 1011.2
20260509144737 27 38 3.2 9.7 0.00 0.00 0.00 80 1011.6
20260509144233 27 73 4.8 9.7 0.00 0.00 0.00 80 1011.6
20260509143731 27 70 6.4 22.5 0.00 0.00 0.00 81 1011.6
20260509143228 27 56 9.7 25.7 0.00 0.00 0.00 81 1011.6
20260509142723 27 54 9.7 19.3 0.00 0.00 0.00 80 1011.6
20260509142220 27 102 9.7 17.7 0.00 0.00 0.00 80 1011.6
20260509141716 27 126 9.7 25.7 0.00 0.00 0.00 81 1011.6
20260509141213 27 109 6.4 12.9 0.00 0.00 0.00 81 1011.6
20260509140709 27 82 6.4 11.3 0.00 0.00 0.00 81 1011.6
20260509140207 27 114 6.4 9.7 0.00 0.00 0.00 81 1011.6
20260509135704 27 85 8.0 20.9 0.00 0.00 0.00 81 1011.9
20260509135202 27 112 8.0 14.5 0.00 0.00 0.00 81 1011.9
20260509134658 27 101 8.0 17.7 0.00 0.00 0.00 81 1011.9
20260509134156 27 101 8.0 17.7 0.00 0.00 0.00 81 1011.9
20260509133653 27 85 9.7 22.5 0.00 0.00 0.00 82 1011.9
20260509133150 27 72 6.4 16.1 0.00 0.00 0.00 82 1011.9
20260509132649 27 76 3.2 11.3 0.00 0.00 0.00 83 1011.9
20260509132147 27 98 6.4 11.3 0.00 0.00 0.00 83 1011.9
20260509131545 27 137 4.8 9.7 0.00 0.00 0.00 82 1011.9
20260509131042 27 137 4.8 9.7 0.00 0.00 0.00 82 1011.9
20260509130537 27 75 3.2 9.7 0.00 0.00 0.00 83 1012.3
20260509130035 27 112 3.2 9.7 0.00 4.17 4.17 83 1012.3
20260509125531 27 100 6.4 17.7 0.00 4.17 4.17 83 1012.3
20260509125027 27 113 6.4 12.9 0.00 4.17 4.17 83 1012.3
20260509124524 27 81 4.8 11.3 0.00 4.17 4.17 83 1012.3
20260509124022 27 110 4.8 12.9 0.00 4.17 4.17 83 1012.3
20260509123520 27 88 3.2 16.1 0.00 4.17 4.17 83 1012.3
20260509123015 27 119 6.4 12.9 0.00 4.17 4.17 84 1012.3
20260509122512 27 109 6.4 16.1 0.00 4.17 4.17 84 1012.3
20260509122009 27 129 6.4 11.3 0.00 4.17 4.17 83 1012.3
20260509121505 27 111 8.0 12.9 0.00 4.17 4.17 83 1012.3
20260509121003 27 86 9.7 16.1 0.00 4.17 4.17 82 1012.3
20260509120501 27 100 4.8 11.3 0.00 4.17 4.17 82 1012.3
20260509115959 27 114 6.4 12.9 0.00 4.17 4.17 82 1012.3
20260509115456 27 47 4.8 11.3 0.00 4.17 4.17 83 1012.3
20260509114953 27 107 6.4 14.5 0.00 4.17 4.17 83 1012.3
20260509114452 27 91 1.6 6.4 0.00 4.17 4.17 83 1012.3
20260509113951 27 89 6.4 20.9 0.00 4.17 4.17 83 1012.3
20260509113448 27 54 3.2 9.7 0.00 4.17 4.17 82 1012.3
20260509112944 27 66 1.6 9.7 0.00 4.17 4.17 83 1012.3
20260509112442 27 65 6.4 11.3 0.00 4.17 4.17 83 1012.3
20260509111938 27 65 6.4 11.3 0.00 4.17 4.17 83 1012.3
20260509111436 27 115 6.4 14.5 0.00 4.17 4.17 83 1012.3
20260509110933 27 61 9.7 19.3 0.00 4.17 4.17 83 1011.9
20260509110429 27 62 8.0 17.7 0.00 4.17 4.17 83 1011.9
20260509105927 27 79 6.4 16.1 0.00 4.17 4.17 83 1011.9
20260509105426 27 48 4.8 9.7 0.00 4.17 4.17 83 1011.9
20260509104922 27 62 8.0 17.7 0.00 4.17 4.17 82 1011.9
20260509104419 27 64 11.3 22.5 0.00 4.17 4.17 82 1011.9
20260509103916 27 60 9.7 19.3 0.00 4.17 4.17 83 1011.9
20260509103413 27 53 9.7 17.7 0.00 4.17 4.17 83 1011.9
20260509102912 27 73 6.4 22.5 0.00 4.17 4.17 83 1011.9
20260509102409 27 55 6.4 14.5 0.00 4.17 4.17 82 1011.9
20260509101905 27 104 6.4 20.9 0.00 4.17 4.17 82 1011.9
20260509101401 27 71 9.7 17.7 0.00 4.17 4.17 82 1011.9
20260509100859 27 64 8.0 20.9 0.00 4.17 4.17 82 1011.9
20260509100356 27 90 9.7 20.9 0.00 4.17 4.17 82 1011.9
20260509095852 27 92 8.0 17.7 0.00 4.17 4.17 82 1011.9
20260509095350 27 86 9.7 19.3 0.00 4.17 4.17 83 1011.6
20260509094847 27 95 11.3 17.7 0.00 4.17 4.17 83 1011.9
20260509094343 27 73 9.7 19.3 0.00 4.17 4.17 83 1011.9
20260509093841 27 90 9.7 19.3 0.00 4.17 4.17 83 1011.9
20260509093338 27 74 9.7 17.7 0.00 4.17 4.17 83 1011.9
20260509092837 27 73 12.9 32.2 0.00 4.17 4.17 83 1011.9
20260509092334 27 107 9.7 19.3 0.00 4.17 4.17 83 1011.9
20260509091832 27 50 8.0 17.7 0.00 4.17 4.17 83 1011.9
20260509091328 27 94 8.0 19.3 0.00 4.17 4.17 83 1011.6
20260509090826 27 94 8.0 19.3 0.00 4.17 4.17 83 1011.6
20260509090323 27 97 9.7 17.7 0.00 4.17 4.17 83 1011.2
20260509085820 27 75 12.9 22.5 0.00 4.17 4.17 83 1011.2
20260509085318 27 44 9.7 17.7 0.00 4.17 4.17 83 1011.2
20260509084814 27 75 9.7 16.1 0.00 4.17 4.17 83 1011.2
20260509084311 27 68 9.7 27.4 0.00 4.17 4.17 83 1011.2
20260509083809 27 71 9.7 16.1 0.00 4.17 4.17 83 1011.2
20260509083305 27 118 8.0 17.7 0.00 4.17 4.17 84 1010.9
20260509082802 27 118 8.0 17.7 0.00 4.17 4.17 84 1010.9
20260509082258 27 80 4.8 16.1 0.00 4.17 4.17 84 1010.9
20260509081755 27 90 6.4 11.3 0.00 4.17 4.17 85 1010.9
20260509081253 27 29 3.2 12.9 0.00 4.17 4.17 84 1010.9
20260509080751 27 29 3.2 12.9 0.00 4.17 4.17 84 1010.9
20260509080248 27 95 9.7 16.1 0.00 4.17 4.17 84 1011.2
20260509075746 27 44 9.7 20.9 0.00 4.17 4.17 84 1011.2
20260509074618 27 124 3.2 9.7 0.00 4.17 4.17 85 1010.9
20260509074115 27 124 3.2 9.7 0.00 4.17 4.17 85 1010.9
20260509073612 27 72 3.2 11.3 0.00 4.17 4.17 85 1010.9
20260509073108 27 49 8.0 24.1 0.00 4.17 4.17 85 1010.6
20260509072605 27 49 8.0 24.1 0.00 4.17 4.17 85 1010.6
20260509072102 27 45 12.9 24.1 0.00 4.17 4.17 86 1010.6
20260509071558 27 35 12.9 30.6 0.00 4.17 4.17 86 1010.6
20260509071056 27 115 8.0 20.9 0.00 4.17 4.17 85 1010.6
20260509070553 27 115 8.0 20.9 0.00 4.17 4.17 85 1010.6
20260509070049 27 84 9.7 17.7 1.19 4.11 4.11 84 1010.6
20260509065544 27 57 8.0 14.5 0.00 4.11 4.11 85 1010.6
20260509063828 27 68 9.7 20.9 0.00 4.11 4.11 85 1010.6
20260509063324 27 68 9.7 20.9 0.00 4.11 4.11 85 1010.6
20260509062821 27 68 9.7 20.9 0.00 4.11 4.11 85 1010.6
20260509062318 27 33 11.3 20.9 0.00 4.11 4.11 86 1010.2
20260509061815 27 47 12.9 29.0 0.00 4.11 4.11 86 1010.2
20260509061314 27 61 8.0 12.9 0.00 4.09 4.09 86 1010.2
20260509060810 27 64 8.0 16.1 0.00 4.06 4.06 86 1010.2
20260509060307 27 36 4.8 9.7 0.00 4.06 4.06 86 1010.2
20260509055802 27 123 3.2 8.0 1.19 4.04 4.04 86 1010.2
20260509055258 27 28 8.0 16.1 0.00 4.04 4.04 86 1010.2
20260509054755 27 46 6.4 17.7 0.00 4.01 4.01 86 1009.9
20260509054252 27 73 6.4 16.1 0.00 4.01 4.01 86 1010.2
20260509053751 27 49 8.0 20.9 0.00 4.01 4.01 86 1010.2
20260509053247 27 29 8.0 20.9 0.00 3.99 3.99 85 1010.2
20260509052745 27 64 8.0 20.9 1.19 3.89 3.89 85 1010.2
20260509050156 27 100 6.4 12.9 0.00 3.89 3.89 84 1009.9
20260509045653 27 100 6.4 12.9 0.00 3.89 3.89 84 1009.9
20260509045150 27 100 6.4 12.9 0.00 3.89 3.89 84 1009.9
20260509044647 27 70 4.8 9.7 0.00 3.89 3.89 83 1009.9
20260509044144 27 150 1.6 11.3 0.00 3.89 3.89 83 1009.9
20260509043641 27 150 1.6 11.3 0.00 3.89 3.89 83 1009.9
20260509043136 27 132 1.6 6.4 0.00 3.89 3.89 84 1009.9
20260509042633 27 112 0.0 6.4 0.00 3.89 3.89 86 1009.9
20260509042129 27 112 0.0 6.4 0.00 3.89 3.89 86 1009.9
20260509041626 27 153 0.0 0.0 0.00 3.89 3.89 87 1009.9
20260509041123 27 153 0.0 0.0 0.00 3.89 3.89 87 1009.9
20260509040622 27 153 0.0 0.0 0.00 3.89 3.89 87 1009.9
20260509040119 27 153 0.0 3.2 0.00 3.89 3.89 87 1009.9
20260509035615 27 153 0.0 3.2 0.00 3.89 3.89 87 1009.9
20260509035112 27 92 0.0 3.2 0.00 3.86 3.86 87 1009.9
20260509034610 27 92 1.6 3.2 0.00 3.86 3.86 87 1009.9
20260509034106 26 109 4.8 9.7 0.00 3.86 3.86 88 1009.9
20260509033604 26 125 0.0 0.0 0.00 3.86 3.86 88 1009.9
20260509033100 26 97 3.2 11.3 0.00 3.86 3.86 89 1010.2
20260509032558 26 75 3.2 6.4 0.00 3.86 3.86 90 1010.2
20260509032055 26 110 0.0 1.6 0.00 3.86 3.86 91 1010.2
20260509031553 26 110 3.2 8.0 0.00 3.86 3.86 91 1010.2
20260509031049 26 143 0.0 4.8 2.39 3.81 3.81 91 1010.2
20260509030548 26 143 0.0 0.0 0.00 3.81 3.81 91 1010.2
20260509030044 26 143 1.6 3.2 1.19 3.73 3.73 91 1010.6
20260509025540 26 143 1.6 3.2 0.00 3.71 3.71 91 1010.6
20260509025036 26 143 0.0 3.2 1.19 3.68 3.68 91 1010.6
20260509024532 26 152 3.2 6.4 1.19 3.66 3.66 91 1010.6
20260509024028 26 61 0.0 6.4 0.00 3.63 3.63 92 1010.6
20260509023526 26 61 0.0 0.0 1.19 3.61 3.61 92 1010.6
20260509023023 26 61 0.0 0.0 0.00 3.61 3.61 92 1010.9